Regional Weather Roundup
Issued by NWS Green Bay, WI

Home | Current Version | Previous Version | Graphics & Text | Print | Product List | Glossary Off
Versions: 1 2 3 4 5 6 7 8 9 10 11 12 13 14 15 16 17 18 19 20 21 22 23 24 25 26 27 28 29 30 31 32 33 34 35 36 37 38 39 40 41 42 43 44 45 46 47 48 49 50

000
ASUS43 KGRB 202201
RWRGRB

NORTH-CENTRAL AND NORTHEAST WISCONSIN REGIONAL WEATHER ROUNDUP
NATIONAL WEATHER SERVICE GREEN BAY WI
500 PM CDT SUN AUG 20 2017

WIZ005-009-010>012-018-019-202300-
NORTH CENTRAL WISCONSIN

CITY           SKY/WX    TMP DP  RH WIND       PRES   REMARKS
IRONWOOD       SUNNY     75  66  73 W9        29.92R
MANITOWISH WTR NOT AVBL
ARBOR VITAE    NOT AVBL
EAGLE RIVER    NOT AVBL
LAND O LAKES   NOT AVBL
RHINELANDER    CLOUDY    79  67  66 SW9       29.95R
PHILLIPS       NOT AVBL
ANTIGO         NOT AVBL
TOMAHAWK       NOT AVBL
MERRILL        NOT AVBL
$$

WIZ013-073-202300-
NORTHEAST WISCONSIN

CITY           SKY/WX    TMP DP  RH WIND       PRES   REMARKS
IRON MOUNTAIN  SUNNY     82  65  56 SW16      29.90S
MARINETTE      CLOUDY    78  67  68 SW13      29.93S
$$

WIZ017-030-035>037-045-202300-
CENTRAL WISCONSIN

CITY           SKY/WX    TMP DP  RH WIND       PRES   REMARKS
MEDFORD        NOT AVBL
WAUSAU         SUNNY     82  65  56 SW9       29.94S
MOSINEE        MOSUNNY   81  66  61 SW12      29.98R
MARSHFIELD     PTSUNNY   82  64  54 W8        29.96R
WISC RAPIDS    PTSUNNY   83  66  56 SW6       29.98R
STEVENS POINT  NOT AVBL
WAUPACA        NOT AVBL
SHAWANO        NOT AVBL
CLINTONVILLE   NOT AVBL
WAUTOMA        MOSUNNY   81  67  62 S6        29.97S
$$

WIZ038-039-048-051-202300-
FOX VALLEY

CITY           SKY/WX    TMP DP  RH WIND       PRES   REMARKS
NWS GREEN BAY  CLOUDY    79  71  76 S9        29.96S
APPLETON       PTSUNNY   79  63  57 SW9       29.96S
OSHKOSH        CLOUDY    79  65  62 VRB5      29.97S
FOND DU LAC    CLOUDY    79  66  64 S7        29.98F
$$

WIZ022-050-052-202300-
EAST CENTRAL WISCONSIN

CITY           SKY/WX    TMP DP  RH WIND       PRES   REMARKS
EPHRAIM        NOT AVBL
WASHINGTON ISL NOT AVBL
STURGEON BAY   CLOUDY    74  68  81 S9        29.95
MANITOWOC      NOT AVBL
SHEBOYGAN      MOSUNNY   79  71  76 S12       29.99S
$$

LMZ563-521-522-541>543-202300-
LAKESHORE

STATION/POSITION TIME  TEMP    WIND        PRES    VSBY  WAVE
                       AIR SEA DIR/SP/G                  HT/PER
                 (UTC) (F)     (DEG/KT/KT) (MB)    (MI)  (FT/S)
SHEBOYGAN LKSHOR 2100   71     170/ 17/ 17 1015.0F
KEWAUNEE LKSHORE 2130   68     180/ 10/ 12 1014.0F
NORTHPORT PIER   2140   73     160/  8/ 14 1013.2F
N MID LAKE BUOY  2050   69 68  180/ 17/ 19 1014.4F         3/ 4
S GREEN BAY BUOY 2100   75 72  200/ 12/ 14 1013.7F
SISTER BAY LKSHO 2118   77     170/ 13/ 17   N/A
MENOMINEE LKSHOR 2130   77     200/ 12/ 16 1013.1F
$$




USA.gov is the U.S. government's official web portal to all federal, state and local government web resources and services.